Location: Dal�� Lhota
(48.7500°N, 14.0167°E)
Time: 22:48:35
(UTC+00:00)

Meteor 2-13 Rocket - Pass Details

Date: 24 September 2020
Orbit: 936 x 958 km, 82.5° (Epoch: 24 October)

Event Time Altitude Azimuth Distance (km) Brightness Sun altitude
Rises 18:08:29 0° 352° (N) 3,651 7.8 -12.5°
Reaches altitude 10° 18:11:03 10° 356° (N) 2,700 7.0 -13.0°
Maximum altitude 18:17:09 59° 76° (ENE) 1,095 4.5 -13.9°
Drops below altitude 10° 18:23:11 10° 156° (SSE) 2,671 6.4 -14.9°
Enters shadow 18:24:28 - 158° (SSE) 3,149 6.8 -15.1°
